User: anonymous   Login
Location: Holcomb Observatory
(44.4922°N, 73.1654°W)
Time: 18:57:51
(UTC-04:00)
Language:

SL-16 R/B - Orbit

View from above orbital plane
View from above orbital plane
View from above satellite
View from above satellite

Ground track
Ground track

The orbit data is extracted from the following two-line orbital elements,

1 27006U 01056F   16150.49128201 -.00000051  00000-0 -97575-5 0  9993
2 27006  99.2564 298.6461 0014006 227.9620 173.9680 13.70969700723926
Epoch (UTC): 29 May 2016 11:47:26
Eccentricity: 0.0014006
inclination: 99.2564°
perigee height: 986 km
apogee height: 1006 km
right ascension of ascending node: 298.6461°
argument of perigee: 227.9620°
revolutions per day: 13.70969700
mean anomaly at epoch: 173.9680°
orbit number at epoch: 72392

The dashed part of the orbit path shows where the satellite is in the earth's shadow,  

DLR